| time (UTC) | temp C | wind direction | speed KPH | gust KPH | rain 1hr cm | rain 24hr cm | rain mn cm | humidity % | barometer mb |
| 20260507005006 | 26 | 0.0 | 0.0 | 0.00 | 0.00 | 0.00 | 40 | 1016.8 | |
| 20260507004512 | 26 | 0.0 | 0.0 | 0.00 | 0.00 | 0.00 | 40 | 1016.8 | |
| 20260507004007 | 26 | 0.0 | 0.0 | 0.00 | 0.00 | 0.00 | 39 | 1016.9 | |
| 20260507003504 | 26 | 0.0 | 0.0 | 0.00 | 0.00 | 0.00 | 38 | 1016.8 | |
| 20260507003006 | 26 | 0.0 | 0.0 | 0.00 | 0.00 | 0.00 | 39 | 1016.7 | |
| 20260507002503 | 26 | 0.0 | 0.0 | 0.00 | 0.00 | 0.00 | 39 | 1016.8 | |
| 20260507002007 | 26 | 0.0 | 0.0 | 0.00 | 0.00 | 0.00 | 39 | 1016.8 | |
| 20260507001508 | 26 | 0.0 | 0.0 | 0.00 | 0.00 | 0.00 | 38 | 1016.8 | |
| 20260507001007 | 26 | 0.0 | 0.0 | 0.00 | 0.00 | 0.00 | 38 | 1016.8 | |
| 20260507000505 | 26 | 0.0 | 0.0 | 0.00 | 0.00 | 0.00 | 38 | 1016.7 | |
| 20260507000010 | 26 | 0.0 | 0.0 | 0.00 | 0.00 | 0.00 | 38 | 1016.7 | |
| 20260506235507 | 27 | 0.0 | 0.0 | 0.00 | 0.00 | 0.00 | 37 | 1016.7 | |
| 20260506235004 | 27 | 0.0 | 0.0 | 0.00 | 0.00 | 0.00 | 38 | 1016.7 | |
| 20260506234508 | 27 | 0.0 | 0.0 | 0.00 | 0.00 | 0.00 | 37 | 1016.7 | |
| 20260506234003 | 27 | 0.0 | 0.0 | 0.00 | 0.00 | 0.00 | 37 | 1016.7 | |
| 20260506233504 | 27 | 0.0 | 0.0 | 0.00 | 0.00 | 0.00 | 36 | 1016.7 | |
| 20260506233010 | 27 | 0.0 | 0.0 | 0.00 | 0.00 | 0.00 | 36 | 1016.7 | |
| 20260506232503 | 27 | 0.0 | 0.0 | 0.00 | 0.00 | 0.00 | 36 | 1016.7 | |
| 20260506232003 | 27 | 0.0 | 0.0 | 0.00 | 0.00 | 0.00 | 36 | 1016.8 | |
| 20260506231507 | 27 | 0.0 | 0.0 | 0.00 | 0.00 | 0.00 | 36 | 1016.8 | |
| 20260506231004 | 27 | 0.0 | 0.0 | 0.00 | 0.00 | 0.00 | 36 | 1016.8 | |
| 20260506230507 | 27 | 0.0 | 0.0 | 0.00 | 0.00 | 0.00 | 36 | 1016.8 | |
| 20260506230010 | 27 | 0.0 | 0.0 | 0.00 | 0.00 | 0.00 | 36 | 1016.9 | |
| 20260506225508 | 27 | 0.0 | 0.0 | 0.00 | 0.00 | 0.00 | 35 | 1017.0 | |
| 20260506225006 | 27 | 0.0 | 0.0 | 0.00 | 0.00 | 0.00 | 36 | 1017.0 | |
| 20260506224510 | 27 | 0.0 | 0.0 | 0.00 | 0.00 | 0.00 | 35 | 1017.0 | |
| 20260506224009 | 27 | 0.0 | 0.0 | 0.00 | 0.00 | 0.00 | 36 | 1017.1 | |
| 20260506223506 | 27 | 0.0 | 0.0 | 0.00 | 0.00 | 0.00 | 37 | 1017.1 | |
| 20260506223010 | 27 | 0.0 | 0.0 | 0.00 | 0.00 | 0.00 | 35 | 1017.2 | |
| 20260506222508 | 27 | 0.0 | 0.0 | 0.00 | 0.00 | 0.00 | 36 | 1017.2 | |
| 20260506222004 | 27 | 0.0 | 0.0 | 0.00 | 0.00 | 0.00 | 37 | 1017.3 | |
| 20260506221510 | 27 | 0.0 | 0.0 | 0.00 | 0.00 | 0.00 | 35 | 1017.4 | |
| 20260506221007 | 27 | 0.0 | 0.0 | 0.00 | 0.00 | 0.00 | 35 | 1017.5 | |
| 20260506220507 | 27 | 0.0 | 0.0 | 0.00 | 0.00 | 0.00 | 36 | 1017.6 | |
| 20260506220016 | 27 | 0.0 | 0.0 | 0.00 | 0.00 | 0.00 | 35 | 1017.7 | |
| 20260506215511 | 27 | 0.0 | 0.0 | 0.00 | 0.00 | 0.00 | 35 | 1017.8 | |
| 20260506215007 | 27 | 0.0 | 0.0 | 0.00 | 0.00 | 0.00 | 35 | 1017.9 | |
| 20260506214507 | 27 | 0.0 | 0.0 | 0.00 | 0.00 | 0.00 | 34 | 1018.0 | |
| 20260506214007 | 28 | 0.0 | 0.0 | 0.00 | 0.00 | 0.00 | 35 | 1018.0 | |
| 20260506213506 | 27 | 0.0 | 0.0 | 0.00 | 0.00 | 0.00 | 37 | 1018.1 | |
| 20260506213011 | 27 | 0.0 | 0.0 | 0.00 | 0.00 | 0.00 | 37 | 1018.1 | |
| 20260506212509 | 27 | 0.0 | 0.0 | 0.00 | 0.00 | 0.00 | 37 | 1018.1 | |
| 20260506212007 | 27 | 0.0 | 0.0 | 0.00 | 0.00 | 0.00 | 37 | 1018.1 | |
| 20260506211527 | 26 | 0.0 | 0.0 | 0.00 | 0.00 | 0.00 | 39 | 1018.2 | |
| 20260506211007 | 26 | 0.0 | 0.0 | 0.00 | 0.00 | 0.00 | 40 | 1018.2 | |
| 20260506210504 | 26 | 0.0 | 0.0 | 0.00 | 0.00 | 0.00 | 38 | 1018.3 | |
| 20260506210015 | 26 | 0.0 | 0.0 | 0.00 | 0.00 | 0.00 | 39 | 1018.4 | |
| 20260506205503 | 26 | 0.0 | 0.0 | 0.00 | 0.00 | 0.00 | 38 | 1018.4 | |
| 20260506205006 | 26 | 0.0 | 0.0 | 0.00 | 0.00 | 0.00 | 38 | 1018.4 | |
| 20260506204512 | 26 | 0.0 | 0.0 | 0.00 | 0.00 | 0.00 | 39 | 1018.5 | |
| 20260506204006 | 26 | 0.0 | 0.0 | 0.00 | 0.00 | 0.00 | 41 | 1018.6 | |
| 20260506203513 | 26 | 0.0 | 0.0 | 0.00 | 0.00 | 0.00 | 41 | 1018.6 | |
| 20260506203011 | 25 | 0.0 | 0.0 | 0.00 | 0.00 | 0.00 | 42 | 1018.7 | |
| 20260506202507 | 25 | 0.0 | 0.0 | 0.00 | 0.00 | 0.00 | 43 | 1018.7 | |
| 20260506202009 | 25 | 0.0 | 0.0 | 0.00 | 0.00 | 0.00 | 42 | 1018.8 | |
| 20260506201508 | 25 | 0.0 | 0.0 | 0.00 | 0.00 | 0.00 | 42 | 1018.9 | |
| 20260506201003 | 25 | 0.0 | 0.0 | 0.00 | 0.00 | 0.00 | 41 | 1018.9 | |
| 20260506200505 | 25 | 0.0 | 0.0 | 0.00 | 0.00 | 0.00 | 41 | 1019.1 | |
| 20260506200011 | 25 | 0.0 | 0.0 | 0.00 | 0.00 | 0.00 | 41 | 1019.2 | |
| 20260506195504 | 26 | 0.0 | 0.0 | 0.00 | 0.00 | 0.00 | 41 | 1019.2 | |
| 20260506195004 | 26 | 0.0 | 0.0 | 0.00 | 0.00 | 0.00 | 40 | 1019.2 | |
| 20260506194516 | 26 | 0.0 | 0.0 | 0.00 | 0.00 | 0.00 | 40 | 1019.3 | |
| 20260506194007 | 25 | 0.0 | 0.0 | 0.00 | 0.00 | 0.00 | 43 | 1019.3 | |
| 20260506193505 | 25 | 0.0 | 0.0 | 0.00 | 0.00 | 0.00 | 42 | 1019.4 | |
| 20260506193010 | 25 | 0.0 | 0.0 | 0.00 | 0.00 | 0.00 | 42 | 1019.5 | |
| 20260506192511 | 25 | 0.0 | 0.0 | 0.00 | 0.00 | 0.00 | 43 | 1019.6 | |
| 20260506192008 | 24 | 0.0 | 0.0 | 0.00 | 0.00 | 0.00 | 43 | 1019.6 | |
| 20260506191510 | 24 | 0.0 | 0.0 | 0.00 | 0.00 | 0.00 | 44 | 1019.6 | |
| 20260506191008 | 24 | 0.0 | 0.0 | 0.00 | 0.00 | 0.00 | 45 | 1019.8 | |
| 20260506190506 | 24 | 0.0 | 0.0 | 0.00 | 0.00 | 0.00 | 46 | 1019.9 | |
| 20260506190009 | 23 | 0.0 | 0.0 | 0.00 | 0.00 | 0.00 | 44 | 1020.0 | |
| 20260506185503 | 23 | 0.0 | 0.0 | 0.00 | 0.00 | 0.00 | 45 | 1020.1 | |
| 20260506185004 | 23 | 0.0 | 0.0 | 0.00 | 0.00 | 0.00 | 45 | 1020.1 | |
| 20260506184509 | 23 | 0.0 | 0.0 | 0.00 | 0.00 | 0.00 | 45 | 1020.1 | |
| 20260506184003 | 23 | 0.0 | 0.0 | 0.00 | 0.00 | 0.00 | 48 | 1020.2 | |
| 20260506183506 | 23 | 0.0 | 0.0 | 0.00 | 0.00 | 0.00 | 47 | 1020.2 | |
| 20260506183011 | 23 | 0.0 | 0.0 | 0.00 | 0.00 | 0.00 | 47 | 1020.2 | |
| 20260506182506 | 23 | 0.0 | 0.0 | 0.00 | 0.00 | 0.00 | 48 | 1020.2 | |
| 20260506182009 | 22 | 0.0 | 0.0 | 0.00 | 0.00 | 0.00 | 50 | 1020.4 | |
| 20260506181513 | 22 | 0.0 | 0.0 | 0.00 | 0.00 | 0.00 | 51 | 1020.4 | |
| 20260506181012 | 22 | 0.0 | 0.0 | 0.00 | 0.00 | 0.00 | 51 | 1020.5 | |
| 20260506180510 | 22 | 0.0 | 0.0 | 0.00 | 0.00 | 0.00 | 51 | 1020.4 | |
| 20260506180010 | 21 | 0.0 | 0.0 | 0.00 | 0.00 | 0.00 | 53 | 1020.5 | |
| 20260506175506 | 21 | 0.0 | 0.0 | 0.00 | 0.00 | 0.00 | 52 | 1020.5 | |
| 20260506175002 | 21 | 0.0 | 0.0 | 0.00 | 0.00 | 0.00 | 53 | 1020.6 | |
| 20260506174510 | 21 | 0.0 | 0.0 | 0.00 | 0.00 | 0.00 | 53 | 1020.5 | |
| 20260506174003 | 21 | 0.0 | 0.0 | 0.00 | 0.00 | 0.00 | 54 | 1020.6 | |
| 20260506173502 | 21 | 0.0 | 0.0 | 0.00 | 0.00 | 0.00 | 56 | 1020.6 | |
| 20260506173011 | 20 | 0.0 | 0.0 | 0.00 | 0.00 | 0.00 | 58 | 1020.5 | |
| 20260506172502 | 20 | 0.0 | 0.0 | 0.00 | 0.00 | 0.00 | 57 | 1020.6 | |
| 20260506172003 | 20 | 0.0 | 0.0 | 0.00 | 0.00 | 0.00 | 57 | 1020.6 | |
| 20260506171504 | 20 | 0.0 | 0.0 | 0.00 | 0.00 | 0.00 | 58 | 1020.6 | |
| 20260506171003 | 19 | 0.0 | 0.0 | 0.00 | 0.00 | 0.00 | 59 | 1020.6 | |
| 20260506170505 | 19 | 0.0 | 0.0 | 0.00 | 0.00 | 0.00 | 60 | 1020.7 | |
| 20260506170003 | 19 | 0.0 | 0.0 | 0.00 | 0.00 | 0.00 | 61 | 1020.6 | |
| 20260506165503 | 18 | 0.0 | 0.0 | 0.00 | 0.00 | 0.00 | 61 | 1020.6 | |
| 20260506165003 | 18 | 0.0 | 0.0 | 0.00 | 0.00 | 0.00 | 60 | 1020.7 | |
| 20260506164510 | 18 | 0.0 | 0.0 | 0.00 | 0.00 | 0.00 | 61 | 1020.7 | |
| 20260506164002 | 18 | 0.0 | 0.0 | 0.00 | 0.00 | 0.00 | 62 | 1020.7 | |
| 20260506163504 | 18 | 0.0 | 0.0 | 0.00 | 0.00 | 0.00 | 63 | 1020.7 | |
| 20260506163026 | 18 | 0.0 | 0.0 | 0.00 | 0.00 | 0.00 | 63 | 1020.7 | |
| 20260506162504 | 17 | 0.0 | 0.0 | 0.00 | 0.00 | 0.00 | 64 | 1020.7 | |
| 20260506162004 | 17 | 0.0 | 0.0 | 0.00 | 0.00 | 0.00 | 65 | 1020.7 | |
| 20260506161525 | 17 | 0.0 | 0.0 | 0.00 | 0.00 | 0.00 | 67 | 1020.7 | |
| 20260506161004 | 17 | 0.0 | 0.0 | 0.00 | 0.00 | 0.00 | 68 | 1020.7 | |
| 20260506160506 | 16 | 0.0 | 0.0 | 0.00 | 0.00 | 0.00 | 69 | 1020.7 | |
| 20260506160010 | 16 | 0.0 | 0.0 | 0.00 | 0.00 | 0.00 | 70 | 1020.7 | |
| 20260506155503 | 15 | 0.0 | 0.0 | 0.00 | 0.00 | 0.00 | 72 | 1020.7 | |
| 20260506155005 | 15 | 0.0 | 0.0 | 0.00 | 0.00 | 0.00 | 73 | 1020.7 | |
| 20260506154509 | 15 | 0.0 | 0.0 | 0.00 | 0.00 | 0.00 | 74 | 1020.8 | |
| 20260506154008 | 14 | 0.0 | 0.0 | 0.00 | 0.00 | 0.00 | 76 | 1020.8 | |
| 20260506153503 | 14 | 0.0 | 0.0 | 0.00 | 0.00 | 0.00 | 77 | 1020.8 | |
| 20260506153010 | 13 | 0.0 | 0.0 | 0.00 | 0.00 | 0.00 | 78 | 1020.8 | |
| 20260506152505 | 13 | 0.0 | 0.0 | 0.00 | 0.03 | 0.00 | 79 | 1020.8 | |
| 20260506152004 | 13 | 0.0 | 0.0 | 0.00 | 0.03 | 0.00 | 80 | 1020.8 | |
| 20260506151526 | 13 | 0.0 | 0.0 | 0.00 | 0.05 | 0.00 | 81 | 1020.8 | |
| 20260506151003 | 12 | 0.0 | 0.0 | 0.00 | 0.05 | 0.00 | 82 | 1020.8 | |
| 20260506150507 | 12 | 0.0 | 0.0 | 0.00 | 0.05 | 0.00 | 83 | 1020.8 | |
| 20260506150014 | 12 | 0.0 | 0.0 | 0.00 | 0.05 | 0.00 | 84 | 1020.7 | |
| 20260506145505 | 12 | 0.0 | 0.0 | 0.00 | 0.08 | 0.00 | 85 | 1020.7 | |
| 20260506145005 | 12 | 0.0 | 0.0 | 0.00 | 0.08 | 0.00 | 86 | 1020.7 | |
| 20260506144503 | 11 | 0.0 | 0.0 | 0.00 | 0.08 | 0.00 | 86 | 1020.7 | |
| 20260506144003 | 11 | 0.0 | 0.0 | 0.00 | 0.08 | 0.00 | 87 | 1020.7 | |
| 20260506143506 | 11 | 0.0 | 0.0 | 0.00 | 0.08 | 0.00 | 87 | 1020.6 | |
| 20260506143008 | 11 | 0.0 | 0.0 | 0.00 | 0.08 | 0.00 | 88 | 1020.6 | |
| 20260506142503 | 11 | 0.0 | 0.0 | 0.00 | 0.08 | 0.00 | 88 | 1020.6 | |
| 20260506142003 | 11 | 0.0 | 0.0 | 0.00 | 0.08 | 0.00 | 88 | 1020.5 | |
| 20260506141514 | 11 | 0.0 | 0.0 | 0.00 | 0.08 | 0.00 | 88 | 1020.6 | |
| 20260506141003 | 10 | 0.0 | 0.0 | 0.00 | 0.08 | 0.00 | 88 | 1020.5 | |
| 20260506140507 | 10 | 0.0 | 0.0 | 0.00 | 0.08 | 0.00 | 88 | 1020.4 | |
| 20260506140010 | 10 | 0.0 | 0.0 | 0.00 | 0.08 | 0.00 | 88 | 1020.3 | |
| 20260506135503 | 10 | 0.0 | 0.0 | 0.00 | 0.08 | 0.00 | 88 | 1020.2 | |
| 20260506135008 | 10 | 0.0 | 0.0 | 0.00 | 0.08 | 0.00 | 87 | 1020.1 | |
| 20260506134515 | 10 | 0.0 | 0.0 | 0.00 | 0.08 | 0.00 | 87 | 1020.0 | |
| 20260506134009 | 10 | 0.0 | 0.0 | 0.00 | 0.08 | 0.00 | 87 | 1020.0 | |
| 20260506133508 | 10 | 0.0 | 0.0 | 0.00 | 0.08 | 0.00 | 87 | 1019.9 | |
| 20260506133004 | 10 | 0.0 | 0.0 | 0.00 | 0.08 | 0.00 | 87 | 1019.8 | |
| 20260506132502 | 10 | 0.0 | 0.0 | 0.00 | 0.08 | 0.00 | 86 | 1019.8 | |
| 20260506132003 | 10 | 0.0 | 0.0 | 0.00 | 0.08 | 0.00 | 86 | 1019.8 | |
| 20260506131509 | 10 | 0.0 | 0.0 | 0.00 | 0.08 | 0.00 | 86 | 1019.8 | |
| 20260506131003 | 10 | 0.0 | 0.0 | 0.00 | 0.08 | 0.00 | 86 | 1019.8 | |
| 20260506130504 | 10 | 0.0 | 0.0 | 0.00 | 0.08 | 0.00 | 86 | 1019.8 | |
| 20260506130014 | 9 | 0.0 | 0.0 | 0.00 | 0.08 | 0.00 | 85 | 1019.8 | |
| 20260506125507 | 9 | 0.0 | 0.0 | 0.00 | 0.08 | 0.00 | 85 | 1019.7 | |
| 20260506125006 | 9 | 0.0 | 0.0 | 0.00 | 0.08 | 0.00 | 84 | 1019.7 | |
| 20260506124514 | 9 | 0.0 | 0.0 | 0.00 | 0.08 | 0.00 | 84 | 1019.6 | |
| 20260506124006 | 9 | 0.0 | 0.0 | 0.00 | 0.08 | 0.00 | 83 | 1019.5 | |
| 20260506123507 | 9 | 0.0 | 0.0 | 0.00 | 0.08 | 0.00 | 83 | 1019.5 | |
| 20260506123012 | 10 | 0.0 | 0.0 | 0.00 | 0.08 | 0.00 | 83 | 1019.6 | |
| 20260506122508 | 10 | 0.0 | 0.0 | 0.00 | 0.08 | 0.00 | 83 | 1019.5 | |
| 20260506122005 | 10 | 0.0 | 0.0 | 0.00 | 0.08 | 0.00 | 83 | 1019.4 | |
| 20260506121512 | 10 | 0.0 | 0.0 | 0.00 | 0.08 | 0.00 | 83 | 1019.3 | |
| 20260506121003 | 10 | 0.0 | 0.0 | 0.00 | 0.08 | 0.00 | 83 | 1019.3 | |
| 20260506120503 | 10 | 0.0 | 0.0 | 0.00 | 0.08 | 0.00 | 83 | 1019.2 | |
| 20260506120010 | 10 | 0.0 | 0.0 | 0.00 | 0.08 | 0.00 | 83 | 1019.2 | |
| 20260506115506 | 10 | 0.0 | 0.0 | 0.00 | 0.08 | 0.00 | 83 | 1019.2 | |
| 20260506115004 | 10 | 0.0 | 0.0 | 0.00 | 0.08 | 0.00 | 83 | 1019.2 | |
| 20260506114532 | 10 | 0.0 | 0.0 | 0.00 | 0.08 | 0.00 | 83 | 1019.2 | |
| 20260506114007 | 10 | 0.0 | 0.0 | 0.00 | 0.08 | 0.00 | 83 | 1019.2 | |
| 20260506113507 | 10 | 0.0 | 0.0 | 0.00 | 0.08 | 0.00 | 83 | 1019.2 | |
| 20260506113012 | 10 | 0.0 | 0.0 | 0.00 | 0.08 | 0.00 | 82 | 1019.2 | |
| 20260506112514 | 10 | 0.0 | 0.0 | 0.00 | 0.08 | 0.00 | 82 | 1019.1 | |
| 20260506112010 | 10 | 0.0 | 0.0 | 0.00 | 0.08 | 0.00 | 82 | 1019.1 | |
| 20260506111514 | 10 | 0.0 | 0.0 | 0.00 | 0.08 | 0.00 | 82 | 1019.1 | |
| 20260506111010 | 10 | 0.0 | 0.0 | 0.00 | 0.08 | 0.00 | 82 | 1019.1 | |
| 20260506110509 | 10 | 0.0 | 0.0 | 0.00 | 0.08 | 0.00 | 82 | 1019.1 | |
| 20260506110013 | 10 | 0.0 | 0.0 | 0.00 | 0.08 | 0.00 | 82 | 1019.1 | |
| 20260506105511 | 11 | 0.0 | 0.0 | 0.00 | 0.08 | 0.00 | 82 | 1019.0 | |
| 20260506105005 | 11 | 0.0 | 0.0 | 0.00 | 0.08 | 0.00 | 82 | 1018.9 | |
| 20260506104510 | 11 | 0.0 | 0.0 | 0.00 | 0.08 | 0.00 | 82 | 1018.9 | |
| 20260506104004 | 11 | 0.0 | 0.0 | 0.00 | 0.08 | 0.00 | 82 | 1019.0 | |
| 20260506103507 | 11 | 0.0 | 0.0 | 0.00 | 0.08 | 0.00 | 82 | 1019.0 | |
| 20260506103018 | 11 | 0.0 | 0.0 | 0.00 | 0.08 | 0.00 | 82 | 1019.0 | |
| 20260506102507 | 11 | 0.0 | 0.0 | 0.00 | 0.08 | 0.00 | 82 | 1019.1 | |
| 20260506102008 | 11 | 0.0 | 0.0 | 0.00 | 0.08 | 0.00 | 82 | 1018.9 | |
| 20260506101524 | 11 | 0.0 | 0.0 | 0.00 | 0.08 | 0.00 | 82 | 1018.9 | |
| 20260506101007 | 11 | 0.0 | 0.0 | 0.00 | 0.08 | 0.00 | 82 | 1018.8 | |
| 20260506100508 | 11 | 0.0 | 0.0 | 0.00 | 0.08 | 0.00 | 82 | 1018.8 | |
| 20260506100027 | 11 | 0.0 | 0.0 | 0.00 | 0.08 | 0.00 | 82 | 1018.7 | |
| 20260506095511 | 11 | 0.0 | 0.0 | 0.00 | 0.08 | 0.00 | 82 | 1018.7 | |
| 20260506095009 | 11 | 0.0 | 0.0 | 0.00 | 0.08 | 0.00 | 82 | 1018.7 | |
| 20260506094528 | 11 | 0.0 | 0.0 | 0.00 | 0.08 | 0.00 | 82 | 1018.7 | |
| 20260506094008 | 11 | 0.0 | 0.0 | 0.00 | 0.08 | 0.00 | 82 | 1018.7 | |
| 20260506093507 | 11 | 0.0 | 0.0 | 0.00 | 0.08 | 0.00 | 81 | 1018.7 | |
| 20260506093016 | 11 | 0.0 | 0.0 | 0.00 | 0.08 | 0.00 | 81 | 1018.6 | |
| 20260506092507 | 11 | 0.0 | 0.0 | 0.00 | 0.08 | 0.00 | 81 | 1018.6 | |
| 20260506092008 | 11 | 0.0 | 0.0 | 0.00 | 0.08 | 0.00 | 81 | 1018.5 | |
| 20260506091523 | 11 | 0.0 | 0.0 | 0.00 | 0.08 | 0.00 | 81 | 1018.5 | |
| 20260506091008 | 11 | 0.0 | 0.0 | 0.00 | 0.08 | 0.00 | 81 | 1018.6 | |
| 20260506090510 | 11 | 0.0 | 0.0 | 0.00 | 0.08 | 0.00 | 81 | 1018.7 | |
| 20260506090023 | 11 | 0.0 | 0.0 | 0.00 | 0.08 | 0.00 | 81 | 1018.7 | |
| 20260506085507 | 11 | 0.0 | 0.0 | 0.00 | 0.08 | 0.00 | 81 | 1018.7 | |
| 20260506085004 | 11 | 0.0 | 0.0 | 0.00 | 0.08 | 0.00 | 81 | 1018.7 | |
| 20260506084508 | 11 | 0.0 | 0.0 | 0.00 | 0.08 | 0.00 | 81 | 1018.7 | |
| 20260506084004 | 11 | 0.0 | 0.0 | 0.00 | 0.08 | 0.00 | 81 | 1018.7 | |
| 20260506083504 | 11 | 0.0 | 0.0 | 0.00 | 0.08 | 0.00 | 81 | 1018.7 | |
| 20260506083014 | 11 | 0.0 | 0.0 | 0.00 | 0.08 | 0.00 | 81 | 1018.7 | |
| 20260506082504 | 11 | 0.0 | 0.0 | 0.00 | 0.08 | 0.00 | 82 | 1018.6 | |
| 20260506082007 | 11 | 0.0 | 0.0 | 0.00 | 0.08 | 0.00 | 82 | 1018.7 | |
| 20260506081511 | 11 | 0.0 | 0.0 | 0.00 | 0.08 | 0.00 | 82 | 1018.6 | |
| 20260506081004 | 11 | 0.0 | 0.0 | 0.00 | 0.08 | 0.00 | 82 | 1018.7 | |
| 20260506080507 | 11 | 0.0 | 0.0 | 0.00 | 0.08 | 0.00 | 82 | 1018.6 | |
| 20260506073506 | 11 | 0.0 | 0.0 | 0.00 | 0.08 | 0.00 | 81 | 1018.4 | |
| 20260506073010 | 11 | 0.0 | 0.0 | 0.00 | 0.08 | 0.00 | 81 | 1018.4 | |
| 20260506072504 | 11 | 0.0 | 0.0 | 0.00 | 0.08 | 0.00 | 80 | 1018.4 | |
| 20260506072005 | 11 | 0.0 | 0.0 | 0.00 | 0.08 | 0.00 | 80 | 1018.3 | |
| 20260506071513 | 11 | 0.0 | 0.0 | 0.00 | 0.08 | 0.00 | 79 | 1018.3 | |
| 20260506071004 | 11 | 0.0 | 0.0 | 0.00 | 0.08 | 0.00 | 79 | 1018.3 | |
| 20260506070508 | 11 | 0.0 | 0.0 | 0.00 | 0.08 | 0.00 | 78 | 1018.2 | |
| 20260506062505 | 12 | 0.0 | 0.0 | 0.00 | 0.08 | 0.08 | 76 | 1017.8 | |
| 20260506062003 | 12 | 0.0 | 0.0 | 0.00 | 0.08 | 0.08 | 75 | 1017.7 | |
| 20260506061517 | 12 | 0.0 | 0.0 | 0.00 | 0.08 | 0.08 | 75 | 1017.6 | |
| 20260506061007 | 12 | 0.0 | 0.0 | 0.00 | 0.08 | 0.08 | 75 | 1017.5 | |
| 20260506060505 | 12 | 0.0 | 0.0 | 0.00 | 0.08 | 0.08 | 74 | 1017.5 | |
| 20260506051005 | 13 | 0.0 | 0.0 | 0.00 | 0.08 | 0.08 | 73 | 1017.2 | |
| 20260506050502 | 13 | 0.0 | 0.0 | 0.00 | 0.08 | 0.08 | 72 | 1017.2 | |
| 20260506045002 | 14 | 0.0 | 0.0 | 0.00 | 0.08 | 0.08 | 72 | 1017.1 | |
| 20260506044505 | 14 | 0.0 | 0.0 | 0.00 | 0.08 | 0.08 | 72 | 1017.1 | |
| 20260506044002 | 14 | 0.0 | 0.0 | 0.00 | 0.08 | 0.08 | 72 | 1017.0 | |
| 20260506043503 | 14 | 0.0 | 0.0 | 0.00 | 0.08 | 0.08 | 72 | 1016.9 | |
| 20260506043003 | 14 | 0.0 | 0.0 | 0.00 | 0.08 | 0.08 | 72 | 1017.0 | |
| 20260506042505 | 14 | 0.0 | 0.0 | 0.00 | 0.08 | 0.08 | 71 | 1016.9 | |
| 20260506042003 | 14 | 0.0 | 0.0 | 0.00 | 0.08 | 0.08 | 71 | 1016.8 | |
| 20260506041508 | 15 | 0.0 | 0.0 | 0.00 | 0.08 | 0.08 | 71 | 1016.8 | |
| 20260506041009 | 15 | 0.0 | 0.0 | 0.00 | 0.08 | 0.08 | 70 | 1016.7 | |
| 20260506040503 | 15 | 0.0 | 0.0 | 0.00 | 0.08 | 0.08 | 70 | 1016.6 | |
| 20260506040033 | 15 | 0.0 | 0.0 | 0.00 | 0.08 | 0.08 | 70 | 1016.6 | |
| 20260506035503 | 15 | 0.0 | 0.0 | 0.00 | 0.08 | 0.08 | 70 | 1016.6 | |
| 20260506035002 | 15 | 0.0 | 0.0 | 0.00 | 0.08 | 0.08 | 69 | 1016.5 | |
| 20260506034515 | 15 | 0.0 | 0.0 | 0.00 | 0.08 | 0.08 | 69 | 1016.4 | |
| 20260506034001 | 15 | 0.0 | 0.0 | 0.00 | 0.08 | 0.08 | 69 | 1016.4 | |
| 20260506033502 | 15 | 0.0 | 0.0 | 0.00 | 0.08 | 0.08 | 69 | 1016.4 | |
| 20260506033005 | 15 | 0.0 | 0.0 | 0.00 | 0.08 | 0.08 | 68 | 1016.3 | |
| 20260506032503 | 15 | 0.0 | 0.0 | 0.00 | 0.08 | 0.08 | 68 | 1016.2 | |
| 20260506032003 | 15 | 0.0 | 0.0 | 0.00 | 0.08 | 0.08 | 68 | 1016.2 | |
| 20260506031512 | 15 | 0.0 | 0.0 | 0.00 | 0.08 | 0.08 | 67 | 1016.1 | |
| 20260506031003 | 15 | 0.0 | 0.0 | 0.00 | 0.08 | 0.08 | 67 | 1016.1 | |
| 20260506030502 | 16 | 0.0 | 0.0 | 0.00 | 0.08 | 0.08 | 67 | 1016.0 | |
| 20260506030008 | 16 | 0.0 | 0.0 | 0.00 | 0.08 | 0.08 | 67 | 1016.0 | |
| 20260506025504 | 16 | 0.0 | 0.0 | 0.00 | 0.08 | 0.08 | 67 | 1015.9 | |
| 20260506025004 | 16 | 0.0 | 0.0 | 0.00 | 0.08 | 0.08 | 67 | 1015.8 | |
| 20260506024518 | 16 | 0.0 | 0.0 | 0.00 | 0.08 | 0.08 | 67 | 1015.8 | |
| 20260506024003 | 16 | 0.0 | 0.0 | 0.00 | 0.08 | 0.08 | 67 | 1015.7 | |
| 20260506023507 | 16 | 0.0 | 0.0 | 0.00 | 0.08 | 0.08 | 67 | 1015.6 | |
| 20260506023016 | 16 | 0.0 | 0.0 | 0.00 | 0.08 | 0.08 | 67 | 1015.6 | |
| 20260506022503 | 16 | 0.0 | 0.0 | 0.00 | 0.08 | 0.08 | 67 | 1015.6 | |
| 20260506022004 | 16 | 0.0 | 0.0 | 0.00 | 0.08 | 0.08 | 67 | 1015.5 | |
| 20260506021504 | 16 | 0.0 | 0.0 | 0.00 | 0.08 | 0.08 | 67 | 1015.5 | |
| 20260506021003 | 16 | 0.0 | 0.0 | 0.00 | 0.08 | 0.08 | 67 | 1015.4 | |
| 20260506020511 | 16 | 0.0 | 0.0 | 0.00 | 0.08 | 0.08 | 68 | 1015.4 | |
| 20260506020008 | 16 | 0.0 | 0.0 | 0.00 | 0.08 | 0.08 | 68 | 1015.3 | |
| 20260506015503 | 16 | 0.0 | 0.0 | 0.00 | 0.08 | 0.08 | 69 | 1015.2 | |
| 20260506015003 | 16 | 0.0 | 0.0 | 0.00 | 0.08 | 0.08 | 69 | 1015.2 | |
| 20260506014513 | 16 | 0.0 | 0.0 | 0.00 | 0.08 | 0.08 | 69 | 1015.2 | |
| 20260506014003 | 16 | 0.0 | 0.0 | 0.00 | 0.08 | 0.08 | 69 | 1015.2 | |
| 20260506013507 | 16 | 0.0 | 0.0 | 0.00 | 0.08 | 0.08 | 70 | 1015.2 | |
| 20260506013012 | 16 | 0.0 | 0.0 | 0.00 | 0.08 | 0.08 | 70 | 1015.1 | |
| 20260506012504 | 16 | 0.0 | 0.0 | 0.00 | 0.08 | 0.08 | 70 | 1015.1 | |
| 20260506012006 | 16 | 0.0 | 0.0 | 0.00 | 0.08 | 0.08 | 71 | 1015.1 | |
| 20260506011513 | 16 | 0.0 | 0.0 | 0.00 | 0.08 | 0.08 | 71 | 1015.1 | |
| 20260506011003 | 16 | 0.0 | 0.0 | 0.00 | 0.08 | 0.08 | 71 | 1015.1 | |
| 20260506010506 | 16 | 0.0 | 0.0 | 0.00 | 0.08 | 0.08 | 71 | 1015.2 | |
| 20260506010011 | 16 | 0.0 | 0.0 | 0.00 | 0.08 | 0.08 | 71 | 1015.3 | |
| 20260506005504 | 16 | 0.0 | 0.0 | 0.00 | 0.08 | 0.08 | 71 | 1015.2 |